Weather History for Brno, Czech Republic

Change the Weather History Date:

Sunday, September 1, 2013

  Actual Average Record
Temperature  
Mean Temperature 58 °F -  
Max Temperature 66 °F 68 °F - ()
Min Temperature 51 °F 49 °F - ()
Degree Days  
Heating Degree Days 6    
Growing Degree Days 8 (Base 50)    
Moisture  
Dew Point 49 °F    
Average Humidity 69    
Maximum Humidity 94    
Minimum Humidity 37    
Precipitation  
Precipitation 0.01 in 0.05 in - ()
Sea Level Pressure  
Sea Level Pressure 30.14 in    
Wind  
Wind Speed 6 mph ()    
Max Wind Speed 18 mph    
Max Gust Speed -    
Visibility 7.2 miles    
Events Rain    
T = Trace of Precipitation, MM = Missing Value Source: Averaged Metar Reports

Daily Weather History Graph

Daily Weather History Graph

Search for Another Location

Airport:

Trip Planner

Search our weather history database for the weather conditions in past years. The results will help you decide how hot, cold, wet, or windy it might be!

Date:

Astronomy

Sep. 01, 2013 Rise Set
Actual Time 6:09 AM CEST 7:35 PM CEST
Civil Twilight 5:36 AM CEST 8:08 PM CEST
Nautical Twilight 4:56 AM CEST 8:48 PM CEST
Astronomical Twilight 4:12 AM CEST 9:32 PM CEST
Moon 2:01 AM CEST (9/1) 5:13 PM CEST (9/1)
Length of Visible Light 14h 32m
Length of Day
13h 26m
Waning Crescent, 15% of the Moon is Illuminated
Sep 1
Waning Crescent
Sep 5
New
Sep 12
First Quarter
Sep 19
Full
Sep 27
Last Quarter

Hourly Weather History & Observations

Time (CEST) Temp. Dew Point Humidity Pressure Visibility Wind Dir Wind Speed Gust Speed Precip Events Conditions
12:00 AM 60.8 °F 55.4 °F 82% 30.06 in - Calm Calm - N/A   Clear
12:30 AM 59.0 °F 55.4 °F 88% 30.06 in - NNW 1.2 mph - N/A   Clear
1:00 AM 60.8 °F 55.4 °F 82% 30.06 in - Calm Calm - N/A   Clear
1:30 AM 59.0 °F 55.4 °F 88% 30.06 in - SW 2.3 mph - N/A   Clear
2:00 AM 59 °F 56 °F 85% 30.07 in 19 mi SSW 4.5 mph - -   Mostly Cloudy
2:00 AM 59.0 °F 55.4 °F 88% 30.06 in - SW 3.5 mph - N/A   Clear
2:30 AM 59.0 °F 57.2 °F 94% 30.06 in - WSW 4.6 mph - N/A   Clear
3:00 AM 59.0 °F 55.4 °F 88% 30.06 in - WSW 5.8 mph - N/A   Clear
3:30 AM 59.0 °F 55.4 °F 88% 30.06 in - WNW 5.8 mph - N/A   Clear
4:00 AM 60.8 °F 53.6 °F 77% 30.06 in - WNW 4.6 mph - N/A   Clear
4:30 AM 60.8 °F 53.6 °F 77% 30.06 in - WNW 8.1 mph - N/A   Clear
5:00 AM 60.8 °F 53.6 °F 77% 30.06 in - West 5.8 mph - N/A   Clear
5:30 AM 60.8 °F 55.4 °F 82% 30.09 in - West 9.2 mph - N/A   Clear
6:00 AM 59.0 °F 57.2 °F 94% 30.09 in 5.0 mi NW 11.5 mph - N/A Rain Light Rain
6:30 AM 59.0 °F 57.2 °F 94% 30.09 in 5.0 mi NW 8.1 mph - N/A Rain Light Rain
7:00 AM 59.0 °F 57.2 °F 94% 30.09 in 5.0 mi NW 6.9 mph - N/A Rain Light Rain
7:30 AM 59.0 °F 57.2 °F 94% 30.09 in 3.7 mi WNW 5.8 mph - N/A Rain Light Rain
8:00 AM 60.8 °F 57.2 °F 88% 30.09 in 4.3 mi Variable 2.3 mph - N/A Rain Light Rain
8:30 AM 60.8 °F 57.2 °F 88% 30.12 in 4.3 mi NW 4.6 mph - N/A Rain Light Rain
9:00 AM 60.8 °F 57.2 °F 88% 30.12 in 5.0 mi WNW 6.9 mph - N/A Rain Light Rain
9:30 AM 60.8 °F 57.2 °F 88% 30.12 in 6.2 mi NW 9.2 mph - N/A Rain Light Rain
10:00 AM 62.6 °F 57.2 °F 82% 30.15 in 6.2 mi NNW 10.4 mph - N/A   Partly Cloudy
10:21 AM 60.8 °F 53.6 °F 77% 30.15 in 6.2 mi NW 11.5 mph - N/A Rain Light Rain
10:30 AM 60.8 °F 53.6 °F 77% 30.15 in 6.2 mi NW 11.5 mph - N/A Rain Light Rain
11:00 AM 62.6 °F 53.6 °F 72% 30.15 in 6.2 mi NW 13.8 mph - N/A Rain Light Rain
11:30 AM 62.6 °F 50.0 °F 63% 30.15 in - NW 15.0 mph - N/A   Clear
12:00 PM 62.6 °F 48.2 °F 59% 30.18 in - NW 13.8 mph - N/A   Clear
12:30 PM 62.6 °F 50.0 °F 63% 30.18 in - NW 10.4 mph - N/A   Clear
1:00 PM 62.6 °F 48.2 °F 59% 30.18 in - WNW 13.8 mph - N/A   Clear
1:30 PM 62.6 °F 48.2 °F 59% 30.18 in - WNW 15.0 mph - N/A   Clear
2:00 PM 66 °F 49 °F 43% 30.17 in 19 mi WNW 8.9 mph - -   Partly Cloudy
2:00 PM 64.4 °F 50.0 °F 59% 30.18 in - NW 9.2 mph - N/A   Clear
2:30 PM 66.2 °F 44.6 °F 46% 30.18 in - WNW 16.1 mph - N/A   Clear
3:00 PM 66.2 °F 44.6 °F 46% 30.18 in - NW 13.8 mph - N/A   Clear
3:30 PM 66.2 °F 44.6 °F 46% 30.18 in - NW 17.3 mph - N/A   Clear
4:00 PM 64.4 °F 44.6 °F 49% 30.18 in - NW 18.4 mph - N/A   Clear
4:30 PM 64.4 °F 44.6 °F 49% 30.18 in - NW 16.1 mph - N/A   Clear
5:00 PM 62.6 °F 42.8 °F 48% 30.18 in - NNW 15.0 mph - N/A   Clear
5:30 PM 62.6 °F 41.0 °F 45% 30.18 in - NW 17.3 mph - N/A   Clear
6:00 PM 62.6 °F 41.0 °F 45% 30.18 in - NW 12.7 mph - N/A   Clear
6:30 PM 62.6 °F 39.2 °F 42% 30.18 in - NNW 12.7 mph - N/A   Clear
7:00 PM 60.8 °F 39.2 °F 45% 30.18 in - NNW 11.5 mph - N/A   Clear
7:30 PM 59.0 °F 39.2 °F 48% 30.18 in - NNW 8.1 mph - N/A   Clear
8:00 PM 58 °F 39 °F 37% 30.20 in 25 mi NNW 6.7 mph - -   Scattered Clouds
8:00 PM 59.0 °F 39.2 °F 48% 30.18 in - NNW 6.9 mph - N/A   Clear
8:30 PM 57.2 °F 41.0 °F 55% 30.21 in - NNW 3.5 mph - N/A   Clear
9:00 PM 55.4 °F 41.0 °F 58% 30.21 in - North 3.5 mph - N/A   Clear
9:30 PM 55.4 °F 41.0 °F 58% 30.21 in - NNW 4.6 mph - N/A   Clear
10:00 PM 55.4 °F 41.0 °F 58% 30.21 in - North 4.6 mph - N/A   Clear
10:30 PM 51.8 °F 42.8 °F 71% 30.21 in - NW 2.3 mph - N/A   Clear
11:00 PM 51.8 °F 42.8 °F 71% 30.21 in - NW 5.8 mph - N/A   Clear
11:30 PM 51.8 °F 42.8 °F 71% 30.21 in - WNW 6.9 mph - N/A   Clear